Weather Roundup
Issued by NWS

Home | Current Version | Previous Version | Graphics & Text | Print | Product List | Glossary Off
Versions: 1 2 3 4 5 6 7 8 9 10 11 12 13 14 15 16 17 18 19 20 21 22 23 24 25 26 27 28 29 30 31 32 33 34 35 36 37 38 39 40 41 42 43 44 45 46 47 48 49 50

000
NZUS93 KARX 211010
HRRWXR

CURRENT HOURLY OBSERVATIONS ACROSS
MUCH OF THE UPPER MISSISSIPPI VALLEY
NATIONAL WEATHER SERVICE LA CROSSE WI
500 AM CDT SAT OCT 21 2017


...SOUTHEAST MINNESOTA...


CITY           SKY/WX    TMP DP  RH WIND       PRES   REMARKS
ROCHESTER      MOCLDY    60  51  72 S18G26    29.78S
ROCHESTER/MAYO PTSUNNY   61  51  69 SE18G26   29.77S
WINONA         CLEAR     63  50  63 S7G20     29.80S
AUSTIN         CLOUDY    61  52  72 S17G23    29.75S
ALBERT LEA     NOT AVBL
DODGE CENTER   CLEAR     61  52  72 S24       29.74S
PRESTON        CLEAR     59  49  70 S15G22    29.80S
OWATONNA       PTCLDY    61  52  72 SE21G26   29.71S
FARIBAULT      MOCLDY    61  52  72 SE17G25   29.70S
$$

...ELSEWHERE IN MINNESOTA...


CITY           SKY/WX    TMP DP  RH WIND       PRES   REMARKS
MINNEAPOLIS    CLOUDY    63  53  70 S10       29.69F
INTNL FALLS    CLOUDY    63  49  60 S8G17     29.54F
DULUTH         CLOUDY    60  52  74 S16G24    29.69S
RED WING       PTCLDY    63  48  59 S10G20    29.73S
REDWOOD FALLS  CLOUDY    62  55  77 S17       29.57F
MANKATO        PTCLDY    63  54  72 S15G25    29.66S
WORTHINGTON    CLOUDY    63  57  81 S18G26    29.58F
FAIRMONT       MOCLDY    62  55  77 S20G28    29.65S
$$

...SOUTHWEST WISCONSIN...


CITY           SKY/WX    TMP DP  RH WIND       PRES   REMARKS
LA CROSSE      PTCLDY    65  51  60 S15       29.83S
PRAIRIE DU CHI PTCLDY    64  49  57 SE10G18   29.87S
BOSCOBEL       PTCLDY    63  50  62 S7        29.90F
LONE ROCK      PTCLDY    61  51  70 VRB3      29.92S
PLATTEVILLE    PTCLDY    61  51  70 S12       29.93S
FORT MC COY    CLEAR     62  50  63 S12       29.86F
CAMP DOUGLAS   CLEAR     62  49  63 S10G18    29.88S
MAUSTON-NEW LI SUNNY    N/A N/A N/A S9G16     29.88S
VIROQUA        FAIR      59  50  72 S12       29.88S
WIS DELLS      CLOUDY    60  47  63 S13       29.92S
$$

...ELSEWHERE IN WISCONSIN...


CITY           SKY/WX    TMP DP  RH WIND       PRES   REMARKS
MILWAUKEE      CLOUDY    64  49  57 S9        30.02R
MADISON        MOCLDY    59  50  72 S8        29.96F
GREEN BAY      CLOUDY    62  49  62 S9        29.95F
EAU CLAIRE     CLOUDY    61  48  62 SE10      29.78F
BLACK RVR FLS  FAIR      62  46  56 S3        29.85S
MEDFORD        CLOUDY    58  46  63 SE10      29.86S
WAUSAU         PTCLDY    60  46  59 S9        29.88S
WIS RAPIDS     PTCLDY    61  47  59 S8        29.91S
MARSHFIELD     CLOUDY    58  45  62 S9        29.87F
RICE LAKE      CLOUDY    61  48  63 SE9G16    29.77F
$$

...NORTHEAST IOWA...


CITY           SKY/WX    TMP DP  RH WIND       PRES   REMARKS
WATERLOO       MOCLDY    61  52  72 S15       29.81S
DUBUQUE        MOCLDY    61  50  67 S15       29.92F
DECORAH        MOCLDY    61  52  72 S13G20    29.82F
MASON CITY     MOCLDY    60  52  74 S16G24    29.75F
CHARLES CITY   CLOUDY    63  54  72 S15G26    29.80S
OELWEIN        CLOUDY    63  54  72 S18G28    29.85R
$$

...ELSEWHERE IN IOWA...


CITY           SKY/WX    TMP DP  RH WIND       PRES   REMARKS
DES MOINES     LGT RAIN  64  58  80 S16       29.77R
IOWA CITY      CLOUDY    63  52  67 S12       29.91S
FORT DODGE     LGT RAIN  61  58  90 S15       29.71S
MARSHALLTOWN   PTCLDY    61  54  77 SE16      29.78F
CEDAR RAPIDS   CLOUDY    62  52  69 S14       29.87F
$$

...NORTHERN ILLINOIS...


CITY           SKY/WX    TMP DP  RH WIND       PRES   REMARKS
CHICAGO-OHARE  CLOUDY    63  48  58 S9        30.05S
CHICAGO-MIDWAY CLOUDY    63  50  62 S9        30.07R
MOLINE         CLOUDY    64  49  57 S17       29.94F
ROCKFORD       CLOUDY    59  50  72 S10       30.01F
PEORIA         CLOUDY    61  51  70 S12       30.02F
$$

NOTE: "FAIR" INDICATES FEW OR NO CLOUDS BELOW 12,000 FEET WITH NO
SIGNIFICANT WEATHER AND/OR OBSTRUCTIONS TO VISIBILITY. WIND
SPEEDS ARE IN MILES-PER-HOUR.




USA.gov is the U.S. government's official web portal to all federal, state and local government web resources and services.